If you wish to contribute or participate in the discussions about articles you are invited to join SKYbrary as a registered user

 Actions

Recife/Guararapes–Gilberto Freyre International Airport

From SKYbrary Wiki

SBRF
Airport
ICAO: SBRF – IATA: REC
Summary
Name Recife/Guararapes–Gilberto Freyre International Airport
Region South America and Caribbean
Territory Brazil BR.gif
Location Recife, Pernambuco
Serving Recife
Elevation 10.058 m
33 ft10.058 m
Coordinates 8° 7' 35.00" S, 34° 55' 22.01" W
Runways
Designator Length Width Surface ROPS
18/36 3007 m9,865.486 ft
45 m147.638 ft
ASP yes/yes


METAR
Observation SBRF 210300Z 12008KT 060V150 9999 SCT024 27/21 Q1012
Station Recife Aeroporto
Date/Time 21 November 2019 03:00:00
Wind direction 120°
Wind speed 08 kts
Lowest cloud amount scattered clouds
Temperature 27°C
Dew point 21°C
Humidity 69%
QNH 1012 hPa
Weather condition n/a

Recife International Airport (IATA: REC, ICAO: SBRF) is the airport of Recife, Pernambuco.

Climatology

Tropical monsoon climate (Köppen climate classification Cfc)

Maps

Terrain

Loading map...

Airport Layout

Loading map...


Accidents & Serious Incidents at or in vicinity of SBRF

None on SKYbrary